Taunton, MA

8:38 AM EDT on September 25, 2017 (GMT -0400)
Taunton Municipal

Weather History for KTAN - May, 2013

Change the Weather History Date:

Tuesday, May 28, 2013

  Actual Average Record
Temperature  
Mean Temperature 58 °F -  
Max Temperature 77 °F 73 °F 91 °F (2016)
Min Temperature 39 °F 46 °F 36 °F (1967)
Degree Days  
Heating Degree Days 7    
Growing Degree Days 8 (Base 50)    
Moisture  
Dew Point 42 °F    
Average Humidity 75    
Maximum Humidity 97    
Minimum Humidity 26    
Precipitation  
Precipitation 0.00 in - - ()
Sea Level Pressure  
Sea Level Pressure 30.20 in    
Wind  
Wind Speed 1 mph (South)    
Max Wind Speed 10 mph    
Max Gust Speed -    
Visibility 6 miles    
Events Fog    
Averages and records for this station are not official NWS values.
T = Trace of Precipitation, MM = Missing Value Source: NWS Daily Summary

Daily Weather History Graph

Daily Weather History Graph

Search for Another Location

Airport or City:

Trip Planner

Search our weather history database for the weather conditions in past years. The results will help you decide how hot, cold, wet, or windy it might be!

Date:

Astronomy

May. 28, 2013 Rise Set
Actual Time 5:13 AM EDT 8:09 PM EDT
Civil Twilight 4:40 AM EDT 8:43 PM EDT
Nautical Twilight 3:58 AM EDT 9:25 PM EDT
Astronomical Twilight 3:09 AM EDT 10:14 PM EDT
Moon 11:29 PM EDT (5/28) 8:59 AM EDT (5/28)
Length of Visible Light 16h 02m
Length of Day
14h 56m
Waning Gibbous, 83% of the Moon is Illuminated
May 28
Waning Gibbous
May 31
Last Quarter
Jun 8
New
Jun 16
First Quarter
Jun 23
Full

Hourly Weather History & Observations

Time (EDT) Temp. Dew Point Humidity Pressure Visibility Wind Dir Wind Speed Gust Speed Precip Events Conditions
12:52 AM 45.0 °F 43.0 °F 93% 30.19 in 10.0 mi Calm Calm - N/A   Clear
1:52 AM 44.1 °F 42.1 °F 93% 30.19 in 2.0 mi Calm Calm - N/A   Clear
2:00 AM 43.0 °F 41.0 °F 93% 30.19 in 6.0 mi Calm Calm - N/A   Clear
2:24 AM 43.0 °F 41.0 °F 93% 30.19 in 1.8 mi Calm Calm - N/A   Clear
2:35 AM 42.1 °F 39.9 °F 92% 30.19 in 1.2 mi Calm Calm - N/A   Clear
2:49 AM 42.8 °F 39.2 °F 87% 30.19 in 0.5 mi Calm Calm - N/A Fog Fog
2:52 AM 42.1 °F 39.9 °F 92% 30.19 in 0.5 mi Calm Calm - N/A Fog Fog
3:06 AM 42.1 °F 39.0 °F 89% 30.19 in 1.2 mi Calm Calm - N/A   Clear
3:18 AM 41.0 °F 39.0 °F 93% 30.19 in 1.2 mi Calm Calm - N/A   Partly Cloudy
3:21 AM 41.0 °F 39.0 °F 93% 30.19 in 0.8 mi Calm Calm - N/A   Mist
3:52 AM 41.0 °F 39.0 °F 93% 30.19 in 0.8 mi Calm Calm - N/A   Mist
3:58 AM 39.9 °F 39.0 °F 97% 30.19 in 1.2 mi Calm Calm - N/A   Partly Cloudy
4:11 AM 39.9 °F 37.9 °F 93% 30.19 in 0.8 mi Calm Calm - N/A   Clear
4:16 AM 39.9 °F 37.9 °F 93% 30.19 in 1.5 mi Calm Calm - N/A   Clear
4:19 AM 39.9 °F 37.9 °F 93% 30.19 in 2.0 mi Calm Calm - N/A   Partly Cloudy
4:25 AM 39.0 °F 37.9 °F 96% 30.19 in 1.2 mi Calm Calm - N/A   Partly Cloudy
4:45 AM 39.0 °F 37.0 °F 93% 30.19 in 2.0 mi Calm Calm - N/A   Clear
4:52 AM 39.0 °F 37.0 °F 93% 30.19 in 4.0 mi Calm Calm - N/A   Clear
5:01 AM 39.0 °F 37.0 °F 93% 30.19 in 1.5 mi Calm Calm - N/A   Clear
5:08 AM 39.0 °F 37.0 °F 93% 30.19 in 1.0 mi Calm Calm - N/A   Clear
5:25 AM 39.0 °F 37.0 °F 93% 30.20 in 0.8 mi Calm Calm - N/A   Clear
5:52 AM 39.9 °F 39.0 °F 97% 30.21 in 1.8 mi Calm Calm - N/A   Clear
5:54 AM 39.9 °F 39.0 °F 97% 30.21 in 3.0 mi Calm Calm - N/A   Clear
6:52 AM 48.9 °F 46.0 °F 90% 30.22 in 9.0 mi Calm Calm - N/A   Clear
7:52 AM 57.9 °F 48.9 °F 72% 30.23 in 10.0 mi Calm Calm - N/A   Clear
8:52 AM 64.0 °F 44.1 °F 48% 30.23 in 10.0 mi ESE 4.6 mph - N/A   Clear
9:52 AM 68.0 °F 44.1 °F 42% 30.23 in 10.0 mi ESE 5.8 mph - N/A   Clear
10:52 AM 71.1 °F 46.0 °F 41% 30.23 in 10.0 mi SE 6.9 mph - N/A   Clear
11:52 AM 73.0 °F 45.0 °F 37% 30.23 in 10.0 mi Variable 4.6 mph - N/A   Clear
12:52 PM 75.0 °F 41.0 °F 29% 30.21 in 10.0 mi SSW 8.1 mph - N/A   Clear
1:52 PM 75.9 °F 39.0 °F 26% 30.20 in 10.0 mi Variable 5.8 mph - N/A   Clear
2:52 PM 77.0 °F 39.9 °F 26% 30.19 in 10.0 mi SW 8.1 mph - N/A   Clear
3:52 PM 73.0 °F 44.1 °F 35% 30.18 in 10.0 mi Variable 5.8 mph - N/A   Clear
4:52 PM 70.0 °F 44.1 °F 39% 30.18 in 10.0 mi SSW 10.4 mph - N/A   Clear
5:52 PM 66.9 °F 46.0 °F 47% 30.18 in 10.0 mi SSW 6.9 mph - N/A   Clear
6:52 PM 64.9 °F 46.9 °F 52% 30.18 in 10.0 mi SSW 6.9 mph - N/A   Clear
7:52 PM 62.1 °F 48.0 °F 60% 30.19 in 10.0 mi SSW 5.8 mph - N/A   Clear
8:52 PM 60.1 °F 48.9 °F 67% 30.20 in 10.0 mi South 3.5 mph - N/A   Clear
9:52 PM 59.0 °F 50.0 °F 72% 30.21 in 10.0 mi SSE 4.6 mph - N/A   Mostly Cloudy
10:24 PM 60.1 °F 52.0 °F 75% 30.21 in 10.0 mi Calm Calm - N/A   Overcast
10:52 PM 61.0 °F 55.0 °F 81% 30.22 in 10.0 mi SW 9.2 mph - N/A   Overcast
11:52 PM 60.1 °F 55.9 °F 86% 30.21 in 10.0 mi South 4.6 mph - N/A   Overcast